一网星座-0659星 (ONEWEB-0659)

导读

ONEWEB-0659是英国OneWeb星座计划下的低轨宽带通信卫星,于北京时间2022年12月8日由SpaceX猎鹰九号火箭在美国肯尼迪航天中心发射,这也是SpaceX首次为竞争对手OneWeb执行发射任务。 该卫星运行于约1200公里的近地轨道,属于OneWeb一期星座组网卫星,采用“弯管式”设计,依托全球关口站提供低延迟的卫星互联网服务,卫星寿命末期会自动离轨,符合空间碎片管控要求。

Basic Information
目录编号:
54678
目录名称:
ONEWEB-0659
国际标识:
2022-166AN
轨道中心:
EARTH
卫星名称:
一网星座-0659星
卫星全名:
一网星座-0659星 (ONEWEB-0659)
卫星状态:
在轨 (已飞行1374 天)
发射日期:
2022-12-08 UTC
国别 :
英国 (GB)
星等 :
--
This satellite is enrolled in the Space Conjunction Data Service (SCDS) and the current flight risk assessment level is: No High Risk
Orbit Information
数据来源 国际轨道数据 AOE轨道数据
星历时间 2026-09-11T19:05:28+0800
17小时前
查看轨道信息
2026-09-10T13:00:00+0800
1天前
查看轨道信息
半长轴 7555.884km 7555.884km
偏心率 0.0002053 0.000167
轨道倾角 87.926° 87.923°
近地点辐角 82.868° 79.217°
升交点赤经 226.811° 227.061°
平近点角 277.269° 78.038°
近地点 1176.195km 1176.485km
远地点 1179.299km 1179.009km
周期 108.940分钟 108.940分钟
每日圈数 13.218277 13.218278
Detailed Information
平衡模式:
三轴稳定
覆盖范围:
全球
运营商:
一网卫星公司
运营商所在国:
英国
制造商(研发单位):
一网卫星公司
制造商所在国:
英国
使用方式:
暂无
Satellite Introduction
OneWeb卫星网络由648颗重约125公斤的微型卫星组成,运行在1200公里的轨道上。 每颗卫星都能够提供至少每秒8千兆位的吞吐量,以使用其高吞吐量的Ku频段有效载荷为家庭和移动平台提供互联网接入。该卫星仍在工作。
2D Orbit Map
3D Orbit Map
Orbit Altitude Analysis Chart
Orbit Inclination Analysis Chart
Orbit Comprehensive Analysis Chart
View Comprehensive Chart
Miss Distance Evolution Trend with All Objects
Collision Probability Evolution Trend with All Objects